User: anonymous   Login
Location: Unspecified
(0.0000°N, 0.0000°E)
Time: 14:32:21
(UTC+02:00)
Language:

SeaSat 1 - Orbit

View from above orbital plane
View from above orbital plane
View from above satellite
View from above satellite

Ground track
Ground track

The orbit data is extracted from the following two-line orbital elements,

1 10967U 78064A   18114.24108849 -.00000027  00000-0  32239-4 0  9992
2 10967 108.0106 229.5778 0001542 283.9695  76.1278 14.43707095 91499
Epoch (UTC): 24 April 2018 05:47:10
Eccentricity: 0.0001542
inclination: 108.0106°
perigee height: 745 km
apogee height: 747 km
right ascension of ascending node: 229.5778°
argument of perigee: 283.9695°
revolutions per day: 14.43707095
mean anomaly at epoch: 76.1278°
orbit number at epoch: 9149

The dashed part of the orbit path shows where the satellite is in the earth's shadow,  

DLR